Wind_Speed
47 47 48 48 48 49 50 51 52 53 54 55 56 57 59 59 60 65 69 70 69 68 68 71 71 74 79 79 78 80 82 84 86 87 88 89 90 90 90 91 92 93 93 94 95 96 97 99 100 102 104 105 106 106 107 107 108 109 110 111 112 112 112 112 113 114 115 116 116 117 118 120 121 123 125 126 128 129 130 131 130 130 131 132 133 133
45 47 48 48 49 49 50 51 52 53 54 55 56 57 59 60 59 63 69 70 70 70 68 69 70 74 78 79 78 80 81 83 85 86 87 87 87 87 88 88 89 90 90 91 92 94 96 97 99 100 102 103 103 104 105 106 107 108 109 110 111 112 112 112 113 114 114 114 114 114 115 116 117 119 121 123 124 126 129 131 131 130 130 131 132 133
47 49 50 51 51 51 51 52 54 55 56 55 56 58 60 61 59 59 65 69 72 72 69 66 68 72 77 77 77 78 80 82 83 84 84 84 84 84 84 85 85 86 87 88 90 92 94 96 98 100 100 101 102 102 103 104 105 106 107 108 109 110 110 110 111 112 112 112 112 111 111 111 112 115 117 119 120 122 125 128 130 131 130 130 130 132
51 51 51 52 52 52 52 53 55 57 58 57 57 58 59 61 61 58 59 63 68 73 71 64 62 67 74 75 76 78 79 81 83 83 82 80 80 81 81 82 82 83 85 86 88 90 92 94 96 98 99 100 101 102 103 104 105 106 106 105 105 106 106 106 105 106 108 109 109 108 107 106 107 109 111 113 115 118 120 123 126 128 129 129 129 130
53 53 53 53 53 53 53 52 53 55 57 57 57 58 58 60 62 62 60 58 61 69 73 67 59 62 71 75 77 79 79 80 81 79 77 76 77 78 78 79 80 82 84 85 86 88 91 92 94 95 97 98 100 101 102 103 104 105 105 104 103 103 104 104 103 103 105 106 105 103 102 102 103 104 105 107 109 111 114 117 120 123 126 127 128 129
58 57 57 58 57 57 56 55 55 55 56 57 58 59 60 60 61 62 63 61 59 63 70 70 62 59 66 75 78 78 78 79 76 73 73 74 75 75 76 77 79 80 82 84 85 87 89 91 93 94 96 97 99 100 101 101 102 103 103 102 102 102 102 102 102 102 102 101 99 96 96 97 99 100 102 103 105 106 108 110 112 116 121 123 124 126
63 63 62 62 61 60 60 60 59 58 57 57 58 59 60 60 60 61 61 62 60 61 66 69 65 59 60 70 77 77 77 76 73 72 72 74 74 74 75 76 77 78 80 83 86 88 90 92 94 95 96 97 98 99 100 101 102 103 102 102 102 101 99 99 99 99 98 96 94 92 91 93 94 95 96 99 101 102 103 105 107 110 114 119 120 122
66 66 65 65 64 63 63 62 61 60 57 56 57 57 58 58 58 59 59 60 60 61 65 69 69 63 61 69 75 75 75 73 71 72 72 72 73 74 75 75 76 78 80 84 86 89 92 93 94 94 94 94 94 94 95 97 100 101 101 101 101 100 99 99 98 97 96 94 91 90 90 89 87 88 89 92 94 96 97 99 102 104 108 113 117 117
67 67 66 66 65 65 64 63 62 61 58 57 57 58 59 58 58 59 58 59 61 62 65 68 71 69 65 70 76 75 72 71 70 71 71 71 72 73 74 75 76 79 81 83 86 89 90 91 91 90 88 87 86 85 86 88 90 92 93 93 93 93 93 94 95 95 94 92 91 91 89 85 84 84 84 85 87 89 91 92 94 98 101 106 112 114
69 69 69 68 67 67 67 67 65 63 61 60 59 59 61 61 61 62 61 60 61 64 66 68 71 72 69 70 73 73 71 70 71 70 70 72 73 73 73 74 76 78 80 83 84 85 85 86 86 84 82 81 79 78 79 80 80 81 82 82 82 83 83 84 84 85 85 85 86 87 86 84 85 85 83 82 83 84 86 87 87 90 93 97 103 109
72 71 72 72 71 71 71 72 71 69 67 65 63 60 60 60 60 61 61 60 58 60 64 66 68 72 74 73 72 71 70 71 71 71 71 73 74 74 74 76 78 80 82 83 82 82 82 82 82 81 79 77 75 75 75 74 74 75 76 76 77 77 77 76 76 76 76 76 77 77 78 80 81 82 82 81 81 82 83 83 83 84 87 90 94 101
74 74 75 75 75 75 75 75 76 75 74 72 70 65 60 58 57 56 57 56 55 56 58 60 65 70 74 75 72 70 70 70 71 72 73 73 73 74 75 77 79 82 83 82 81 80 79 77 77 76 74 72 70 69 69 68 67 68 69 69 71 73 73 72 72 72 72 71 71 70 70 71 73 74 76 77 78 80 81 81 82 82 82 85 88 93
76 76 77 78 78 78 77 78 78 78 77 75 74 71 66 60 55 53 53 50 50 55 58 58 62 67 70 71 70 70 71 71 70 72 73 73 72 73 74 76 79 81 81 79 79 78 76 73 73 72 70 69 68 67 66 64 63 62 62 62 63 64 65 66 67 67 67 67 67 66 65 65 66 67 68 70 73 75 77 79 80 80 80 81 84 88
78 78 79 80 80 81 81 80 80 80 79 78 77 76 73 68 61 57 55 51 48 52 58 61 63 66 67 67 67 68 70 71 71 72 73 73 73 73 73 76 79 80 79 78 78 77 76 74 72 70 69 68 68 66 65 63 62 60 60 59 58 58 59 59 60 61 62 62 63 63 62 62 63 64 64 66 69 71 73 75 76 77 78 79 81 84
80 81 82 83 83 83 84 84 84 84 83 82 82 81 79 76 71 66 63 59 53 51 55 60 64 66 66 65 66 66 68 71 71 71 71 71 72 73 74 77 79 78 77 76 75 75 74 72 70 68 68 67 66 65 64 62 60 59 58 57 56 56 55 55 55 56 57 57 58 59 59 60 61 61 62 64 67 68 68 69 71 73 75 76 78 80
82 84 84 86 86 86 87 87 87 87 87 86 85 84 83 81 77 73 70 67 62 57 58 62 65 66 66 66 68 69 69 71 73 72 72 72 72 72 73 75 76 74 73 73 72 70 70 69 68 67 66 66 65 64 63 61 59 58 56 55 54 54 53 52 52 52 53 54 54 55 55 56 57 58 59 62 64 64 64 64 66 68 70 71 74 76
84 86 86 87 88 88 89 90 90 89 89 89 87 86 85 84 82 77 72 68 65 61 60 65 70 69 65 65 67 69 69 70 71 72 72 72 71 70 72 72 72 70 69 68 69 68 67 66 66 65 65 64 63 62 61 59 57 56 54 53 52 51 50 49 49 50 50 51 52 52 52 52 53 54 56 58 60 61 61 62 63 64 66 67 69 73
85 88 89 89 90 91 91 92 92 92 92 92 91 89 87 85 85 83 77 70 64 60 57 62 72 74 69 66 66 67 69 69 69 70 70 69 69 69 70 69 68 68 66 66 67 67 67 66 64 64 64 63 61 59 58 57 55 53 52 51 50 49 48 48 48 49 49 49 50 50 50 50 50 51 53 56 57 58 59 61 61 62 63 64 66 69
88 89 91 93 93 94 94 95 95 94 94 94 93 93 91 88 86 85 84 78 70 64 59 58 67 75 73 70 70 70 72 71 69 68 68 68 68 68 69 67 66 66 65 65 66 66 66 65 63 62 62 61 59 57 55 54 52 51 49 48 48 47 47 47 47 48 48 48 48 48 48 48 49 50 52 54 55 56 57 58 59 59 60 61 63 65
91 91 93 95 96 97 97 97 97 97 96 96 95 94 93 91 88 85 86 87 80 73 68 63 65 74 76 74 75 75 75 74 71 69 70 69 69 68 69 67 66 65 64 64 64 65 65 64 62 59 58 58 57 55 53 51 50 48 46 46 45 45 46 46 46 47 47 47 47 47 47 47 48 49 50 52 53 53 54 55 56 57 58 59 60 62
93 94 94 96 97 98 99 100 100 101 100 99 97 96 94 93 91 87 85 87 86 82 80 75 72 76 78 78 79 78 76 75 72 70 70 70 69 68 68 68 66 64 63 63 64 64 64 63 61 59 56 55 54 53 51 49 48 46 44 42 43 43 43 44 45 46 46 46 45 46 46 46 47 48 49 51 51 51 52 53 54 55 56 57 58 59
94 95 95 97 98 99 100 102 102 103 103 101 99 98 97 95 95 91 85 83 83 82 83 84 82 82 82 81 82 82 81 80 77 73 70 70 69 68 67 67 66 64 61 60 62 63 63 62 61 59 56 54 52 51 49 47 45 44 42 41 41 41 41 42 42 43 43 44 44 45 45 46 46 47 48 49 49 50 50 51 52 53 54 55 56 56
96 96 95 96 99 101 102 102 102 102 102 102 101 99 99 98 97 96 92 88 85 80 76 76 80 83 85 85 86 86 85 84 81 77 73 71 70 68 67 65 64 62 60 59 60 61 62 61 59 58 56 54 52 51 49 46 44 42 41 41 40 40 40 40 40 40 40 40 41 42 43 44 45 47 48 48 48 48 49 49 50 52 53 54 54 54
100 100 98 96 97 99 100 101 102 102 103 103 103 101 100 99 97 96 94 92 90 86 78 71 72 78 82 82 84 85 84 84 81 77 74 72 70 68 66 64 62 59 58 58 59 60 61 60 58 57 55 53 52 51 49 47 44 42 40 40 39 39 38 38 38 38 37 37 38 38 40 42 44 45 47 47 47 47 47 48 49 50 52 53 52 52
103 104 104 101 100 99 100 100 101 103 104 105 105 104 101 99 98 96 94 91 88 88 86 78 72 74 78 79 80 81 81 81 80 76 74 73 71 68 64 62 61 59 57 57 58 59 59 59 58 57 55 53 51 51 50 48 46 43 41 39 38 37 36 34 34 35 35 35 36 36 37 39 41 43 44 46 46 46 46 46 47 48 50 51 51 51
106 108 109 109 108 108 108 109 109 109 108 107 106 105 103 101 99 97 94 90 87 86 89 87 80 75 76 76 76 76 76 76 75 72 71 71 71 69 66 62 61 58 56 55 55 57 57 57 57 57 55 53 51 50 49 48 46 44 41 39 38 37 36 33 31 31 32 32 33 34 35 36 38 39 40 42 43 43 44 44 45 46 47 49 50 50
107 109 112 113 113 114 115 116 116 116 113 110 107 105 104 102 100 97 94 91 88 84 84 88 87 83 81 79 78 78 77 75 73 70 68 67 67 68 66 63 61 58 56 54 54 54 55 55 54 54 54 53 52 50 48 47 46 43 40 38 37 37 37 35 32 30 30 30 31 32 33 35 35 36 37 39 40 40 40 41 42 43 44 46 47 47
107 109 112 114 115 116 118 117 117 117 116 114 110 107 106 104 100 97 95 92 89 84 79 80 83 83 82 83 83 83 81 79 74 70 67 66 65 66 66 64 62 60 58 57 56 55 54 54 53 52 51 51 51 50 49 47 46 44 41 38 35 35 36 37 35 32 31 30 31 31 31 32 34 34 35 36 37 37 37 38 39 40 42 43 44 44
108 109 111 113 114 116 117 117 116 116 116 115 113 110 107 106 103 100 98 96 93 90 84 80 80 81 81 82 83 83 82 80 75 69 67 67 66 66 67 67 65 62 59 58 58 57 54 53 53 52 50 48 48 48 48 47 45 44 42 39 36 34 34 36 36 34 32 31 31 31 31 31 32 33 34 35 35 35 35 35 36 37 39 41 42 42
110 111 112 113 114 115 116 117 117 117 116 115 114 111 108 107 106 103 100 97 95 93 91 87 85 85 84 83 82 81 80 79 75 70 68 67 66 65 66 67 66 64 61 59 58 56 54 52 51 50 49 47 46 45 46 45 44 42 42 40 37 33 31 32 35 35 33 32 31 30 30 30 30 31 33 34 34 34 34 34 34 35 37 38 40 42
111 112 113 113 114 115 116 117 117 118 117 116 114 112 110 107 106 103 99 96 93 91 91 91 89 87 85 83 83 82 81 80 76 72 69 67 66 64 63 63 64 63 62 61 59 57 54 52 50 49 48 46 45 44 43 43 43 42 40 39 37 34 31 29 31 32 32 32 31 30 30 30 30 30 31 33 34 34 33 33 33 34 35 36 38 40
112 113 114 114 115 116 117 119 119 117 117 116 114 112 110 107 105 104 101 99 97 95 93 92 91 89 86 84 83 83 84 83 78 74 71 68 65 63 61 60 60 61 60 60 59 57 54 52 50 48 47 46 45 44 43 42 42 42 40 38 37 35 32 29 28 29 30 30 30 28 29 29 29 29 30 31 32 32 32 33 34 34 34 34 36 38
113 115 117 116 116 117 119 121 122 119 117 117 116 114 112 108 106 105 104 103 102 101 98 95 92 89 86 83 81 80 82 83 80 76 73 70 66 64 62 60 59 59 59 59 58 56 53 52 50 47 45 44 44 43 42 41 40 40 40 39 37 35 33 31 28 27 27 28 27 27 27 28 29 28 28 29 30 31 31 32 33 34 33 33 34 36
114 118 120 121 121 122 122 122 122 123 122 121 119 117 115 112 109 107 107 105 102 100 98 95 92 89 86 83 80 78 79 81 82 79 77 74 69 65 63 61 59 58 58 58 57 55 53 51 49 46 44 42 42 41 40 39 38 38 38 39 38 37 34 32 29 27 26 26 24 25 26 27 27 27 27 27 27 28 30 31 32 32 32 33 33 34
115 119 123 125 124 125 126 125 125 127 127 125 122 120 118 116 113 110 108 105 102 99 96 94 93 91 89 86 83 79 77 78 79 79 78 76 73 68 64 61 59 58 57 56 56 54 52 51 49 47 44 42 41 40 39 38 38 37 37 37 37 37 35 33 31 28 26 24 23 24 25 26 26 25 25 25 25 26 27 28 30 30 30 31 31 32
116 119 123 127 128 127 128 129 130 129 128 126 125 124 122 121 118 115 111 107 105 102 99 97 95 94 92 88 84 79 76 77 77 77 77 76 74 71 67 62 59 57 56 55 53 51 50 49 48 46 44 42 41 40 39 38 37 37 36 35 35 35 34 32 31 29 26 24 23 24 24 24 23 23 23 24 24 24 24 26 27 28 28 29 29 30
117 121 125 129 132 131 132 132 131 130 130 130 129 129 127 125 122 119 115 112 109 106 104 100 98 96 94 90 86 80 76 75 75 75 74 73 72 70 68 65 61 58 57 55 53 50 48 47 45 43 42 41 39 38 38 37 36 36 35 35 34 33 32 31 30 29 26 24 23 23 22 22 21 22 23 23 23 23 23 24 25 26 27 28 29 29
118 123 127 131 135 136 137 138 136 134 135 135 133 132 131 127 123 120 116 114 112 109 106 104 101 99 96 93 89 84 78 75 73 72 71 70 69 66 65 64 63 60 58 55 53 51 49 48 46 43 41 39 38 37 36 35 34 34 34 34 33 32 31 30 29 28 26 24 22 21 21 20 21 21 22 22 22 23 23 23 24 25 26 27 28 29
119 124 128 132 136 139 141 143 144 142 141 140 137 134 132 129 126 122 118 115 113 111 109 106 104 101 99 96 93 89 84 78 74 72 70 69 68 65 63 62 62 62 60 57 54 51 49 49 47 44 41 39 37 37 36 35 34 34 34 34 33 31 30 29 28 27 25 24 23 21 21 20 21 21 21 21 21 22 22 22 22 23 24 25 26 27
119 124 128 132 136 140 142 144 147 147 146 145 142 137 133 131 128 125 123 119 116 115 112 110 106 104 102 99 96 93 90 86 81 79 76 72 70 68 65 63 62 61 59 57 54 52 50 49 48 45 42 40 38 37 36 36 35 35 34 32 31 30 29 28 26 25 25 24 23 22 21 20 20 20 20 20 20 20 20 20 20 21 22 22 23 25
119 123 128 133 137 140 142 144 146 148 148 147 145 141 136 132 129 128 128 127 123 119 116 113 110 106 104 102 99 95 93 91 88 85 82 77 72 68 66 65 64 62 59 56 54 52 50 49 47 45 43 41 39 37 36 36 35 34 33 31 29 28 27 26 25 24 24 23 23 22 21 20 19 19 18 18 18 18 18 19 19 20 20 21 21 22
119 122 128 133 137 142 145 145 146 149 150 148 146 144 141 137 134 131 130 129 126 122 118 115 112 109 105 103 100 97 94 92 89 86 82 79 74 69 66 64 64 62 60 57 55 53 51 50 48 45 43 42 40 38 37 36 35 34 31 29 28 27 25 24 23 23 22 22 21 21 20 19 18 18 17 17 17 17 17 18 18 18 19 20 20 21
120 124 129 134 138 142 147 149 150 152 154 152 150 149 147 144 140 135 132 129 126 123 119 115 112 109 106 103 100 97 94 91 88 85 82 78 74 69 66 64 63 61 58 56 55 53 52 51 48 45 43 42 41 39 38 36 34 33 31 29 27 25 24 23 23 22 21 20 19 19 19 19 18 17 17 16 16 16 16 16 16 17 18 19 20 20
122 127 131 136 140 144 148 153 155 156 158 158 156 154 151 146 142 138 135 131 127 123 119 115 112 109 107 104 101 97 93 90 87 84 81 77 73 69 65 64 63 61 59 57 55 53 52 51 49 45 43 42 41 40 38 36 34 32 31 29 27 25 24 23 22 21 20 19 18 18 17 17 17 16 16 15 15 14 14 14 15 16 17 18 18 19
122 127 131 135 139 143 147 151 153 155 157 159 158 156 152 148 143 139 136 132 128 124 119 116 113 110 107 104 101 98 94 90 87 84 81 77 73 69 66 64 62 60 58 57 55 53 52 51 49 46 43 42 41 39 37 35 33 32 30 29 27 25 23 22 21 20 19 18 17 17 16 16 15 15 14 14 13 13 13 13 14 14 15 16 16 16
121 126 131 134 136 139 143 147 151 154 156 157 157 155 152 148 144 139 135 133 130 126 122 118 114 111 108 105 102 100 96 92 87 84 82 78 73 69 67 65 63 61 59 58 56 54 52 51 49 46 43 42 40 39 37 36 34 32 31 29 27 25 23 22 20 18 17 17 16 16 16 15 14 14 13 12 11 11 11 12 12 12 12 12 13 13
121 125 129 132 135 137 141 145 150 155 157 158 157 154 151 147 143 139 136 133 130 128 125 121 116 112 109 106 103 101 98 93 89 85 82 78 74 70 67 65 64 61 60 58 57 55 53 52 50 47 44 42 40 39 38 36 34 33 31 29 27 25 23 21 19 17 16 16 15 15 15 14 13 13 12 10 9 9 10 10 10 9 9 9 10 10
122 124 127 131 135 138 141 144 149 154 158 160 159 156 152 148 144 140 136 133 130 127 125 122 119 115 111 108 105 103 99 95 90 86 82 78 74 70 68 66 64 62 60 59 58 55 53 52 50 47 44 42 41 40 38 36 34 33 31 28 27 25 23 21 19 17 16 15 15 14 14 13 12 11 10 9 9 8 8 7 7 7 7 7 8 8
122 124 126 129 133 138 142 145 149 153 157 160 161 159 155 150 146 142 138 135 131 127 124 121 120 118 115 112 108 105 101 97 92 87 83 79 75 71 68 66 64 62 61 60 58 56 54 53 51 47 44 42 41 40 38 36 34 32 30 28 27 25 23 21 19 17 16 15 14 13 13 12 11 10 9 8 8 7 6 6 5 5 5 5 6 6
122 122 125 129 135 140 144 148 151 154 158 160 162 161 158 153 149 145 141 137 133 130 126 123 120 118 116 114 110 107 103 98 93 88 84 80 75 72 69 67 65 63 61 60 59 56 54 53 50 47 44 42 41 39 37 36 34 32 30 28 27 26 23 21 20 18 16 14 13 12 11 11 10 9 9 9 8 7 6 6 5 5 4 4 4 4
124 124 127 132 137 142 145 148 152 155 159 162 163 163 161 157 152 147 143 139 136 133 130 127 123 119 117 114 111 108 104 99 94 88 84 80 76 72 69 67 65 64 62 62 60 58 55 52 49 46 44 42 41 39 37 36 34 33 31 29 27 26 23 22 20 18 16 14 13 11 11 10 10 11 10 9 8 7 7 6 5 4 3 3 3 2
Wind_Direction
325 324 323 321 320 319 317 315 313 311 309 307 305 304 302 300 299 298 296 296 295 294 293 292 292 292 291 291 290 289 288 287 286 286 285 285 284 283 283 283 282 282 282 282 281 281 280 278 277 276 275 274 274 273 272 272 271 270 269 269 268 267 266 265 264 262 261 259 258 257 257 256 256 255 255 255 255 254 254 253 253 251 251 251 250 250
333 332 331 329 328 326 323 320 317 314 312 310 308 306 305 303 302 301 299 299 298 296 295 294 294 294 293 292 292 290 289 287 286 286 285 285 286 286 287 287 286 286 286 285 284 283 282 281 280 279 278 277 276 275 274 273 272 271 270 269 268 267 266 265 265 264 263 261 260 259 258 257 256 256 256 255 255 255 255 254 254 253 252 251 251 251
341 340 338 335 334 331 329 325 322 318 316 314 313 310 308 306 304 303 302 302 301 299 297 297 297 296 294 293 293 292 290 289 289 288 287 288 290 291 290 290 289 289 287 286 285 284 283 283 282 281 280 279 278 277 276 275 273 272 271 269 268 267 266 265 265 265 265 264 263 262 260 259 258 257 256 256 255 255 255 254 255 254 253 252 251 251
347 344 341 339 337 335 333 329 326 322 320 319 316 312 310 307 305 303 301 302 302 300 298 296 296 296 294 294 293 292 292 291 290 290 291 292 293 292 291 290 289 288 287 286 285 284 283 282 281 280 279 279 278 277 275 274 273 273 272 271 271 270 270 269 268 267 267 267 266 265 264 263 261 260 259 257 256 255 254 254 254 255 254 254 252 251
350 348 345 342 341 339 336 333 330 326 324 322 319 315 312 310 308 307 305 303 302 302 300 298 298 297 295 295 293 291 291 290 289 291 293 293 292 291 291 290 289 287 286 286 284 283 281 280 279 278 277 276 275 275 274 274 273 274 274 274 274 274 273 273 272 271 270 268 267 266 265 264 263 262 260 259 257 256 255 254 254 254 254 254 253 252
353 351 349 347 345 343 340 337 335 332 330 327 324 320 316 314 313 311 310 308 306 304 302 300 299 297 296 294 292 291 290 290 291 293 294 293 293 292 291 290 289 288 288 286 285 283 281 280 279 278 277 276 276 276 277 277 277 276 277 276 276 275 274 273 273 272 270 269 268 266 265 264 262 261 260 259 257 256 255 254 253 253 253 253 252 252
354 353 352 349 347 345 343 341 339 337 335 332 327 323 320 319 317 314 313 311 309 306 302 301 299 297 296 293 291 292 292 293 296 298 297 296 295 295 293 292 291 290 289 287 286 285 283 282 281 280 280 280 280 280 280 280 280 279 279 278 277 276 276 275 274 273 272 271 270 269 267 265 263 261 260 259 258 257 255 254 253 252 252 252 251 250
356 354 353 351 349 347 345 344 342 340 338 335 330 327 324 323 320 317 315 313 312 309 306 304 302 301 300 296 294 294 296 298 300 299 298 298 298 297 295 294 294 292 290 288 287 285 284 283 283 283 283 282 281 281 280 278 277 277 277 277 277 277 277 277 276 276 275 274 274 272 270 267 265 263 261 260 259 258 256 255 253 252 252 253 252 250
358 355 354 353 350 348 346 345 344 342 340 338 335 332 330 328 325 322 321 319 317 314 310 308 306 306 304 300 297 297 300 302 302 301 301 300 299 297 296 295 294 291 290 289 287 286 286 286 286 285 285 284 282 281 279 277 276 276 276 276 275 275 274 274 273 273 274 274 274 273 272 270 269 267 264 262 260 258 256 254 252 252 251 252 253 252
360 357 355 355 352 350 347 346 346 345 343 341 339 338 335 333 331 328 326 324 321 317 313 310 308 306 303 299 298 301 304 305 303 303 302 300 298 298 298 296 294 293 292 290 289 290 291 291 291 291 290 289 288 286 283 281 280 279 278 278 277 275 274 272 271 271 271 271 270 270 270 270 269 267 265 263 261 259 257 254 251 250 249 249 251 252
1 358 356 356 355 352 350 348 348 347 346 344 342 341 338 336 334 331 327 325 323 318 314 311 308 306 305 304 304 307 308 307 306 305 304 302 302 302 302 300 298 297 295 295 296 297 297 296 295 294 293 292 290 288 286 284 283 282 280 280 279 278 277 276 275 274 272 271 269 267 266 265 264 264 263 262 261 260 258 255 252 249 247 247 248 250
1 359 357 357 356 354 353 351 349 349 348 345 343 341 341 339 336 332 328 327 325 321 316 310 308 308 307 307 309 311 309 308 308 308 306 306 307 306 304 303 302 300 299 300 301 299 297 296 295 294 293 292 291 288 286 284 282 280 279 278 277 277 278 278 277 276 275 273 272 269 266 264 262 261 260 260 259 258 257 256 254 251 247 246 245 247
0 360 358 357 357 355 354 352 351 350 348 346 343 341 341 339 338 334 330 330 330 327 322 314 309 308 308 310 312 312 311 310 310 309 308 309 308 306 305 304 302 301 302 303 302 300 300 299 298 299 299 298 297 295 292 290 287 285 282 280 278 277 277 276 275 275 274 273 272 271 269 266 264 262 260 259 257 256 255 254 254 252 249 246 245 244
0 360 358 358 357 356 354 353 352 351 349 347 345 343 342 341 341 339 334 334 336 331 324 317 312 310 311 312 312 312 311 311 311 310 311 311 309 308 308 306 304 305 307 307 306 306 305 304 304 303 303 302 300 299 297 296 294 292 289 287 284 282 279 277 275 273 272 271 270 269 268 266 264 263 261 258 256 254 253 252 252 251 250 248 245 244
1 360 359 357 357 356 355 354 353 352 351 349 347 346 345 343 343 343 339 338 337 332 324 318 315 314 314 314 313 313 314 314 313 313 313 313 312 312 311 309 309 311 311 309 307 306 305 305 305 305 304 303 302 301 300 298 297 295 292 291 289 286 283 280 277 274 272 270 269 267 266 264 263 262 260 258 256 254 253 252 251 250 249 249 247 245
3 0 359 358 357 357 355 354 353 352 351 351 349 347 346 345 344 344 342 340 338 335 329 322 319 319 319 319 319 319 319 318 317 317 317 316 315 314 312 310 311 311 309 308 307 305 305 306 306 306 306 304 303 302 300 299 297 296 294 293 290 288 285 282 279 276 274 272 269 267 266 264 262 261 259 258 257 256 254 253 251 250 249 248 247 246
6 2 0 359 358 357 356 354 353 353 352 351 350 349 348 346 345 344 343 342 339 337 333 327 323 322 321 322 322 321 320 320 319 319 318 317 316 315 313 312 312 311 310 309 308 307 307 308 308 308 306 304 304 302 301 299 298 296 295 293 291 288 286 284 281 278 276 273 271 269 267 265 263 260 258 257 257 256 256 254 253 252 250 248 246 246
7 5 2 360 359 358 357 355 354 353 352 351 350 350 349 348 346 343 343 343 340 338 337 331 325 323 323 324 323 322 321 321 321 320 319 318 318 316 314 314 313 313 313 312 310 310 310 310 310 308 306 305 304 303 301 300 299 298 297 295 293 290 288 285 283 280 278 275 273 271 269 266 264 261 259 257 256 256 255 254 254 253 251 250 248 246
7 7 4 1 360 359 358 356 355 354 353 352 351 350 348 348 347 345 343 343 342 340 339 337 330 324 325 326 326 325 325 324 324 323 322 322 320 318 316 317 317 316 316 314 313 312 311 310 310 309 308 306 305 304 302 301 300 300 299 297 295 292 290 287 284 282 279 277 275 272 270 267 264 262 259 258 256 255 254 254 253 252 251 250 249 247
7 7 6 3 1 0 359 357 355 354 354 353 352 350 348 348 348 347 346 344 343 342 340 341 336 328 328 330 329 328 327 326 327 328 327 326 323 321 321 321 320 320 318 316 314 313 311 311 310 310 309 308 307 306 304 303 303 301 300 298 296 294 291 289 286 284 281 278 276 273 270 268 265 262 260 259 257 255 254 253 251 251 250 249 248 247
7 7 7 5 2 2 0 358 356 355 355 354 352 351 349 348 347 349 349 345 344 343 340 341 340 333 331 332 330 329 328 328 330 331 330 328 326 325 324 323 323 322 320 317 315 313 312 312 312 312 311 309 308 307 306 305 304 302 301 299 297 294 292 289 287 285 282 280 277 274 271 268 265 262 260 259 258 256 254 252 251 250 249 248 247 246
8 7 8 6 4 2 1 360 357 356 355 353 352 351 349 349 348 349 350 348 345 345 342 342 341 336 333 333 332 331 331 331 332 333 333 330 328 327 327 325 324 322 319 317 315 315 314 315 315 314 313 312 310 309 308 306 305 304 302 300 298 296 293 290 287 284 282 279 278 275 272 269 266 264 261 259 258 257 255 253 251 250 249 248 247 246
8 7 8 8 6 4 3 1 359 357 355 354 353 352 350 350 349 348 349 349 347 346 345 344 341 336 334 335 334 333 333 332 332 334 335 333 330 330 329 326 323 322 320 320 318 317 317 316 316 316 315 314 313 312 311 310 309 307 305 303 300 297 294 291 288 285 281 278 275 274 272 270 268 266 264 261 259 257 256 254 253 251 250 248 247 246
9 7 7 8 8 6 5 3 1 359 358 356 354 353 352 350 350 349 349 349 347 345 345 346 344 338 335 336 334 332 332 331 332 335 336 334 331 331 329 325 324 323 323 323 321 319 318 317 317 317 317 316 315 314 314 313 312 310 307 305 302 299 296 293 290 288 284 279 275 272 270 269 267 267 266 265 262 259 257 255 254 252 251 250 248 246
10 8 7 7 6 6 4 3 1 0 360 358 356 354 352 351 350 350 350 349 347 346 344 345 346 341 337 336 334 332 332 331 333 336 337 335 332 330 329 327 326 326 326 325 323 321 320 319 319 319 318 317 316 316 316 315 315 313 310 308 304 301 297 294 291 289 287 283 279 275 271 268 266 265 265 265 264 262 259 256 254 252 251 251 249 248
12 10 7 7 6 5 4 3 2 1 1 359 357 355 353 352 351 350 350 349 349 349 345 343 345 342 338 336 334 333 333 333 335 338 338 335 332 330 331 330 328 327 327 326 324 323 321 321 321 320 319 318 317 316 316 315 315 314 312 310 308 304 300 296 292 290 288 286 283 280 276 272 270 268 266 265 264 263 262 259 256 253 251 250 250 249
13 11 9 8 8 7 6 5 3 2 1 0 359 357 354 353 352 351 350 350 350 351 348 344 344 343 340 338 336 336 336 336 339 341 339 336 333 331 331 331 330 329 328 328 326 325 323 322 321 321 319 318 317 317 317 316 315 314 313 312 310 307 304 301 298 294 292 289 287 284 281 278 276 274 271 268 266 265 263 261 259 255 252 250 249 249
13 12 11 9 9 8 7 6 5 3 2 1 359 358 356 354 352 351 351 351 350 351 350 347 345 343 341 340 339 339 338 338 341 342 340 337 336 334 332 332 332 332 331 331 329 328 326 324 323 321 320 319 318 318 318 317 316 315 315 314 312 309 305 303 302 300 297 294 290 287 284 282 281 278 275 272 269 267 264 262 260 258 254 250 248 248
13 13 12 10 10 9 8 7 5 4 2 1 360 359 357 355 353 353 352 352 351 351 351 350 347 345 344 343 341 340 338 337 340 343 342 340 339 337 335 334 334 334 333 332 330 329 328 326 324 322 320 319 319 318 318 317 316 315 315 315 314 310 307 304 304 303 301 297 293 289 286 283 281 279 276 274 271 269 265 262 260 259 256 252 249 247
13 13 12 11 10 10 8 7 6 4 3 2 1 359 358 356 354 354 353 352 352 352 351 351 350 348 347 345 342 340 338 337 341 344 344 342 341 340 337 335 334 334 334 333 331 330 329 327 325 323 321 321 320 319 317 316 316 316 316 315 314 312 308 304 303 303 302 298 294 290 287 284 280 277 275 274 272 270 267 264 260 258 256 254 251 248
13 13 13 12 11 10 9 7 6 5 3 2 1 0 360 359 356 354 354 353 352 353 352 352 351 350 348 346 344 342 339 339 342 345 344 343 343 341 338 336 335 334 334 332 331 331 330 328 327 326 323 322 321 320 318 317 316 317 317 316 315 313 311 306 302 301 300 298 295 292 289 285 282 277 274 272 272 271 269 266 263 258 256 254 253 250
14 13 13 12 11 10 9 8 6 5 4 2 1 1 0 0 357 354 355 355 354 354 354 353 352 350 349 348 346 344 341 340 342 344 344 343 344 342 340 338 337 335 334 332 331 332 332 330 329 328 325 324 323 322 320 319 318 318 318 317 315 314 313 309 304 300 297 296 295 293 290 286 283 279 275 272 271 271 270 267 265 262 258 255 253 252
14 13 12 12 11 10 9 9 7 5 4 2 2 1 0 1 359 357 356 357 356 355 355 354 352 351 350 349 349 348 343 340 342 344 343 344 346 345 342 341 340 337 335 333 332 333 333 332 331 329 326 325 324 323 321 320 319 318 318 317 316 316 314 311 308 303 298 295 295 293 289 285 283 280 277 275 273 272 271 269 267 265 263 260 256 254
14 13 12 11 11 10 9 9 7 5 4 3 2 1 0 1 1 0 358 358 357 356 355 353 352 351 351 351 351 351 346 342 342 344 343 344 346 347 344 343 342 339 337 335 335 336 335 333 332 330 327 327 325 323 321 321 320 320 318 317 317 316 315 312 309 305 300 297 294 290 286 284 283 282 280 278 275 272 271 270 269 268 267 265 262 259
14 14 13 11 11 11 9 8 8 6 5 4 2 2 1 1 2 2 0 358 357 356 355 354 354 353 352 353 353 352 349 345 344 344 344 343 345 346 345 344 343 340 338 337 337 338 337 335 334 331 329 329 327 324 323 323 323 321 319 317 315 315 314 312 310 308 303 299 294 288 285 285 286 285 283 280 276 272 270 269 269 269 269 268 266 264
14 14 13 12 11 11 10 9 9 7 5 4 3 2 2 2 2 2 1 359 358 357 356 356 356 354 353 353 353 353 352 348 346 346 345 344 345 345 344 344 344 342 340 340 340 340 338 337 335 332 330 330 329 326 325 326 324 322 319 317 314 312 312 311 309 308 306 302 297 291 290 291 290 287 284 280 277 273 270 267 267 268 269 268 266 263
14 14 13 13 12 11 10 9 9 7 6 5 4 3 3 3 2 1 1 360 359 358 357 357 357 356 354 353 353 354 354 351 348 347 345 344 345 345 344 344 344 343 342 343 343 342 340 338 336 333 331 331 330 328 327 327 324 321 319 317 314 313 312 310 309 308 307 305 301 298 297 295 291 287 284 282 279 276 271 266 264 262 262 262 261 259
15 14 13 13 12 11 11 9 8 8 7 6 5 5 4 3 2 2 1 1 360 359 358 358 357 356 355 354 354 354 354 353 350 348 347 346 346 347 345 344 344 343 344 345 345 343 342 340 338 335 334 333 332 329 328 327 325 322 320 318 316 316 315 312 310 309 309 307 304 301 298 294 290 287 286 284 282 279 274 269 265 263 260 259 259 258
14 15 14 13 12 12 12 11 9 9 8 7 6 5 4 3 2 2 2 2 1 360 359 359 358 357 355 354 354 354 353 353 352 350 350 349 349 349 348 346 345 344 345 347 346 345 344 342 339 337 336 335 334 332 331 331 329 326 323 320 319 319 318 316 314 313 312 310 306 303 300 296 293 291 290 288 285 282 279 275 271 267 264 262 260 258
14 14 14 14 12 12 12 12 10 9 9 8 6 5 4 4 3 2 1 2 2 1 0 359 358 358 356 355 355 354 353 352 353 352 352 352 352 351 349 348 347 346 347 348 347 346 345 344 341 338 337 337 337 335 335 334 332 329 326 324 324 323 320 319 318 318 316 314 310 307 304 301 298 296 294 291 287 283 280 276 273 269 266 264 263 261
14 14 14 14 13 12 12 12 12 10 9 9 7 5 4 4 3 3 3 2 2 2 1 359 359 358 357 356 355 355 354 352 353 353 352 353 353 352 350 349 348 348 349 348 347 347 346 345 342 339 339 339 339 338 338 338 335 331 329 329 328 326 323 323 323 323 321 318 314 310 307 304 301 298 295 291 287 282 278 275 272 270 268 266 266 264
14 14 14 14 13 12 11 11 12 11 10 9 7 5 4 4 4 5 4 3 2 1 1 360 359 358 358 356 355 355 355 353 353 353 352 352 353 353 351 350 348 349 350 349 348 348 347 346 344 342 341 341 340 341 341 340 336 333 333 334 333 330 328 328 328 326 323 320 316 312 309 306 303 299 295 291 287 282 279 277 275 273 270 268 266 264
15 15 15 15 14 13 12 11 12 12 10 9 8 7 5 5 4 4 4 4 2 1 1 0 359 358 358 357 356 355 355 354 353 352 352 352 352 352 352 351 350 350 351 349 349 349 348 347 346 343 342 342 342 343 343 340 337 335 337 338 337 334 333 333 332 329 325 321 318 314 311 308 305 302 297 293 289 286 284 280 277 273 270 267 264 261
15 15 16 16 15 13 13 12 11 12 11 10 9 8 6 5 4 4 4 4 3 2 1 0 360 359 358 358 356 356 356 355 354 353 352 353 353 352 352 352 351 352 351 350 350 350 349 348 346 345 344 344 345 344 342 340 338 339 341 341 340 339 339 339 336 331 327 324 321 317 313 310 306 303 300 298 295 292 288 283 276 270 266 263 260 257
16 16 16 17 16 15 13 12 12 12 11 11 9 8 7 6 5 4 4 3 3 2 1 1 360 360 359 358 357 356 356 356 355 353 353 354 353 353 352 352 353 353 352 351 351 351 350 348 347 346 346 347 346 343 342 341 342 344 345 345 344 344 345 344 340 334 330 327 324 321 317 313 310 307 306 305 302 296 290 282 275 268 264 261 258 255
16 16 16 16 16 16 15 14 12 12 12 11 10 9 8 6 5 4 4 3 3 2 2 1 0 360 360 359 358 357 357 356 356 355 354 355 354 354 353 353 354 354 353 352 353 352 351 350 349 348 349 348 346 344 344 344 345 348 349 348 348 349 350 347 342 337 333 330 326 324 321 318 317 315 314 311 304 295 287 280 274 271 268 265 262 260
16 17 16 15 15 15 15 15 13 12 12 12 11 10 8 7 6 5 4 3 3 2 2 2 1 0 0 0 359 358 357 357 356 356 356 355 355 355 354 354 355 355 354 353 353 353 352 350 350 350 350 349 347 347 347 347 348 351 351 350 350 351 352 349 344 340 337 334 331 328 326 325 323 321 317 311 302 292 286 282 280 277 274 270 268 267
15 16 16 15 15 14 15 15 15 13 12 12 11 10 9 7 6 6 5 4 3 3 3 2 1 0 0 1 0 359 358 357 357 357 357 356 356 355 355 355 355 355 354 354 354 354 352 351 351 352 351 349 349 350 349 348 351 352 352 351 351 353 353 351 347 345 343 340 337 333 331 328 325 322 317 311 306 301 298 293 288 283 278 275 272 270
14 15 15 15 15 14 14 15 15 14 13 13 12 10 9 8 7 6 5 4 4 3 3 3 2 1 1 1 1 0 359 358 357 357 357 357 357 356 356 356 356 356 355 355 355 354 353 353 353 352 351 351 352 351 349 350 352 353 352 352 354 355 354 352 350 350 349 346 343 338 334 331 328 326 325 323 320 319 315 310 303 296 287 279 273 268
13 14 15 15 14 14 14 14 14 14 13 13 12 11 10 8 7 6 6 5 4 4 3 3 3 3 2 1 1 1 360 359 358 358 358 358 358 358 357 356 357 357 356 356 356 356 354 354 353 353 353 354 353 351 351 352 354 354 354 355 356 356 355 354 354 354 353 351 349 344 340 338 338 339 340 341 340 336 331 327 320 307 293 279 273 269
12 13 15 15 15 14 14 14 14 14 13 13 12 11 10 9 8 7 6 6 5 4 4 3 3 4 3 2 1 1 0 359 358 358 358 358 359 359 358 357 357 357 357 357 357 356 355 354 354 355 355 354 353 353 353 355 355 355 355 357 357 357 356 356 356 356 356 356 355 354 354 353 352 353 353 352 350 344 339 338 337 331 323 315 310 298
Height
10575 10569 10562 10555 10549 10542 10535 10528 10520 10513 10506 10500 10493 10486 10479 10474 10468 10456 10445 10439 10435 10434 10430 10421 10417 10407 10394 10391 10388 10381 10373 10364 10356 10351 10347 10343 10339 10337 10334 10329 10325 10319 10315 10310 10305 10300 10295 10290 10285 10280 10276 10272 10269 10267 10264 10261 10258 10255 10252 10249 10245 10242 10240 10239 10237 10235 10234 10234 10236 10237 10239 10241 10244 10245 10246 10247 10249 10250 10252 10255 10259 10265 10269 10271 10274 10278
10571 10563 10556 10548 10542 10536 10528 10520 10512 10505 10498 10492 10485 10478 10470 10463 10460 10450 10435 10429 10424 10420 10419 10413 10407 10397 10383 10378 10375 10367 10360 10352 10345 10339 10334 10330 10327 10324 10320 10315 10310 10305 10301 10295 10289 10283 10277 10271 10266 10262 10258 10255 10251 10248 10244 10241 10238 10235 10232 10228 10224 10222 10220 10218 10216 10214 10213 10215 10216 10218 10221 10225 10227 10228 10228 10230 10233 10234 10236 10237 10238 10244 10251 10255 10257 10260
10566 10558 10550 10543 10536 10529 10522 10513 10504 10496 10489 10484 10477 10468 10461 10452 10450 10446 10431 10420 10411 10404 10406 10405 10399 10386 10371 10365 10362 10354 10346 10338 10332 10327 10322 10320 10317 10312 10306 10301 10297 10292 10287 10280 10274 10268 10262 10255 10249 10244 10240 10236 10232 10229 10225 10221 10217 10213 10210 10206 10203 10201 10199 10199 10198 10196 10195 10196 10197 10199 10204 10208 10210 10211 10212 10214 10217 10218 10219 10219 10219 10223 10230 10236 10242 10244
10561 10554 10546 10539 10531 10524 10517 10508 10498 10489 10480 10475 10469 10460 10453 10443 10436 10435 10430 10420 10405 10390 10388 10394 10393 10379 10360 10353 10348 10339 10333 10326 10319 10316 10314 10312 10307 10300 10295 10290 10286 10279 10273 10267 10261 10255 10248 10241 10234 10228 10223 10219 10214 10209 10205 10201 10196 10191 10188 10186 10183 10182 10181 10181 10183 10183 10181 10179 10180 10182 10187 10192 10193 10195 10196 10197 10200 10201 10201 10201 10202 10203 10208 10214 10221 10228
10557 10550 10542 10534 10527 10519 10511 10504 10495 10485 10475 10467 10460 10451 10443 10436 10426 10419 10417 10414 10404 10385 10370 10374 10383 10372 10351 10341 10334 10326 10321 10315 10310 10310 10308 10303 10297 10290 10284 10279 10273 10266 10260 10254 10248 10241 10233 10225 10219 10214 10207 10201 10196 10191 10186 10182 10178 10173 10170 10169 10168 10167 10165 10164 10166 10167 10163 10160 10161 10164 10168 10173 10174 10176 10178 10178 10179 10181 10181 10185 10187 10186 10187 10192 10198 10205
10551 10544 10536 10527 10520 10512 10504 10498 10490 10481 10471 10460 10451 10442 10433 10427 10420 10410 10403 10398 10395 10383 10363 10357 10366 10365 10349 10330 10318 10314 10310 10304 10304 10304 10298 10291 10286 10280 10273 10266 10259 10253 10246 10238 10230 10223 10215 10208 10202 10196 10189 10184 10179 10174 10170 10166 10162 10158 10156 10155 10153 10151 10149 10147 10147 10145 10143 10141 10142 10146 10150 10153 10154 10155 10157 10157 10158 10161 10163 10167 10171 10170 10168 10170 10176 10182
10545 10537 10529 10521 10513 10506 10496 10489 10481 10473 10466 10456 10445 10437 10427 10419 10412 10403 10395 10387 10382 10375 10359 10347 10347 10352 10346 10323 10306 10302 10298 10295 10295 10292 10285 10278 10272 10267 10259 10252 10246 10239 10231 10221 10212 10204 10196 10189 10183 10178 10174 10169 10165 10162 10158 10153 10147 10142 10140 10137 10133 10131 10130 10129 10128 10126 10124 10123 10123 10127 10131 10132 10133 10136 10139 10139 10138 10142 10145 10147 10151 10153 10151 10149 10153 10161
10539 10531 10523 10515 10507 10499 10491 10483 10476 10468 10461 10453 10442 10432 10423 10415 10405 10396 10388 10378 10370 10362 10349 10335 10328 10331 10331 10312 10295 10292 10289 10288 10286 10279 10273 10267 10259 10253 10245 10239 10232 10224 10215 10205 10197 10189 10180 10174 10169 10164 10161 10158 10153 10150 10146 10138 10131 10126 10123 10120 10116 10114 10113 10111 10109 10107 10105 10103 10105 10108 10108 10110 10113 10117 10120 10121 10120 10123 10127 10129 10132 10135 10136 10131 10131 10140
10536 10527 10519 10511 10502 10493 10486 10479 10471 10463 10455 10447 10437 10426 10415 10407 10397 10387 10380 10370 10359 10350 10338 10326 10314 10312 10315 10300 10283 10283 10283 10280 10274 10267 10261 10254 10246 10239 10232 10226 10218 10208 10200 10192 10183 10175 10167 10161 10155 10151 10147 10144 10139 10135 10129 10122 10117 10113 10109 10106 10103 10100 10098 10096 10093 10091 10088 10087 10089 10088 10087 10091 10095 10095 10098 10101 10102 10103 10106 10110 10114 10117 10119 10118 10113 10117
10532 10523 10514 10507 10498 10488 10479 10470 10463 10455 10447 10438 10430 10420 10407 10398 10388 10377 10370 10363 10353 10339 10327 10318 10306 10297 10297 10290 10278 10276 10274 10267 10260 10255 10249 10240 10232 10227 10220 10211 10202 10194 10186 10177 10169 10162 10154 10147 10139 10134 10130 10125 10121 10117 10111 10105 10103 10100 10096 10093 10089 10085 10082 10080 10079 10078 10076 10076 10075 10073 10073 10076 10076 10075 10078 10081 10082 10084 10085 10088 10094 10097 10101 10104 10100 10097
10526 10517 10508 10501 10492 10482 10472 10462 10453 10445 10437 10428 10421 10415 10406 10395 10385 10373 10363 10357 10349 10336 10322 10311 10300 10285 10276 10274 10272 10268 10261 10253 10246 10240 10233 10225 10217 10210 10202 10192 10183 10175 10167 10159 10154 10147 10139 10131 10124 10118 10114 10109 10105 10100 10094 10090 10087 10084 10081 10078 10074 10069 10066 10065 10064 10063 10061 10060 10060 10061 10061 10061 10060 10060 10062 10063 10064 10065 10066 10069 10074 10078 10082 10087 10087 10083
10521 10513 10503 10495 10486 10476 10466 10455 10444 10435 10426 10418 10410 10405 10401 10394 10386 10375 10363 10354 10345 10332 10319 10307 10294 10278 10264 10260 10261 10257 10248 10241 10234 10225 10217 10210 10203 10195 10185 10175 10165 10156 10148 10143 10137 10131 10124 10119 10112 10106 10101 10095 10090 10085 10080 10078 10074 10071 10068 10065 10062 10057 10054 10052 10051 10048 10046 10045 10045 10046 10046 10046 10047 10048 10048 10050 10050 10050 10051 10054 10056 10060 10064 10068 10071 10070
10515 10508 10498 10490 10480 10470 10461 10451 10440 10429 10420 10411 10402 10394 10389 10386 10381 10371 10359 10352 10341 10324 10310 10299 10287 10274 10262 10255 10251 10245 10235 10229 10223 10214 10206 10199 10191 10184 10174 10164 10154 10144 10138 10131 10123 10115 10108 10102 10097 10091 10086 10080 10073 10068 10065 10062 10059 10057 10054 10052 10050 10047 10044 10041 10039 10037 10035 10033 10032 10031 10032 10033 10034 10034 10036 10037 10037 10036 10037 10039 10041 10044 10048 10052 10054 10055
10511 10503 10493 10484 10475 10464 10454 10445 10435 10426 10415 10403 10392 10381 10373 10367 10363 10356 10346 10340 10335 10320 10302 10289 10276 10265 10259 10253 10246 10238 10227 10219 10212 10204 10195 10187 10177 10170 10161 10150 10140 10132 10125 10116 10107 10098 10091 10086 10081 10076 10072 10066 10061 10056 10051 10047 10045 10042 10039 10037 10036 10034 10031 10029 10027 10025 10023 10021 10020 10020 10020 10020 10020 10021 10022 10023 10022 10022 10023 10026 10028 10030 10033 10036 10039 10040
10506 10496 10486 10477 10468 10458 10447 10436 10426 10416 10406 10395 10382 10370 10360 10350 10344 10339 10330 10323 10321 10313 10297 10280 10267 10256 10251 10245 10237 10230 10220 10209 10201 10194 10187 10177 10165 10156 10147 10136 10127 10120 10112 10103 10096 10088 10081 10075 10071 10066 10061 10055 10050 10045 10040 10037 10033 10030 10027 10025 10023 10020 10018 10017 10014 10012 10011 10010 10009 10008 10008 10008 10008 10009 10009 10008 10007 10008 10011 10014 10016 10018 10020 10022 10025 10028
10501 10490 10480 10469 10460 10451 10440 10430 10420 10408 10397 10387 10376 10364 10352 10342 10334 10329 10320 10310 10303 10297 10285 10269 10256 10248 10241 10233 10223 10215 10209 10199 10189 10181 10173 10163 10155 10147 10138 10128 10119 10112 10104 10095 10087 10080 10073 10067 10061 10056 10050 10044 10040 10035 10030 10027 10023 10020 10017 10014 10012 10009 10007 10005 10003 10001 9999 9998 9998 9997 9997 9997 9997 9998 9997 9996 9996 9997 10000 10002 10003 10005 10007 10010 10013 10015
10500 10486 10476 10466 10455 10446 10435 10423 10413 10402 10390 10380 10369 10359 10347 10334 10324 10319 10315 10306 10295 10288 10276 10256 10240 10236 10235 10228 10218 10208 10200 10192 10181 10171 10162 10152 10145 10137 10128 10120 10112 10103 10096 10086 10076 10068 10062 10057 10051 10046 10040 10035 10031 10026 10021 10017 10014 10011 10008 10005 10002 9999 9997 9995 9993 9991 9989 9988 9987 9987 9987 9987 9987 9987 9987 9986 9986 9987 9989 9990 9992 9994 9995 9998 10001 10002
10498 10484 10472 10462 10452 10441 10430 10419 10407 10395 10384 10372 10360 10350 10340 10329 10316 10305 10300 10298 10291 10283 10275 10256 10230 10219 10220 10217 10212 10203 10192 10184 10175 10164 10155 10144 10135 10126 10117 10110 10101 10092 10085 10075 10065 10057 10050 10045 10042 10036 10030 10024 10021 10017 10012 10008 10005 10002 9999 9996 9993 9990 9988 9986 9983 9981 9979 9978 9977 9977 9977 9977 9977 9977 9976 9976 9976 9977 9978 9979 9980 9983 9985 9987 9989 9991
10493 10483 10469 10456 10446 10434 10423 10411 10400 10390 10379 10366 10353 10340 10329 10321 10312 10298 10285 10279 10277 10270 10266 10258 10232 10210 10206 10202 10195 10188 10178 10170 10164 10155 10144 10133 10123 10114 10106 10099 10091 10081 10073 10065 10055 10047 10040 10036 10033 10028 10021 10014 10010 10007 10003 10000 9996 9993 9990 9987 9984 9981 9978 9977 9974 9972 9970 9969 9968 9967 9967 9967 9967 9967 9966 9965 9966 9967 9968 9969 9970 9972 9974 9975 9978 9980
10487 10478 10466 10451 10439 10428 10417 10406 10395 10385 10374 10360 10348 10336 10324 10313 10305 10294 10277 10260 10256 10251 10245 10245 10230 10205 10193 10187 10178 10172 10164 10156 10150 10142 10131 10120 10111 10102 10093 10086 10079 10070 10062 10054 10046 10039 10032 10027 10023 10019 10014 10006 10001 9997 9994 9991 9987 9984 9982 9979 9976 9973 9970 9967 9965 9963 9962 9961 9959 9958 9958 9957 9957 9957 9956 9955 9956 9958 9958 9959 9960 9961 9962 9964 9966 9968
10483 10474 10464 10451 10438 10426 10414 10401 10388 10375 10364 10353 10342 10330 10318 10307 10296 10290 10279 10258 10243 10233 10221 10219 10216 10198 10183 10174 10165 10159 10154 10146 10139 10132 10122 10110 10100 10092 10081 10072 10066 10060 10053 10045 10038 10030 10023 10017 10013 10009 10005 9999 9994 9989 9986 9983 9979 9976 9974 9971 9968 9965 9963 9960 9957 9955 9953 9952 9951 9950 9949 9948 9947 9947 9947 9946 9947 9948 9949 9949 9950 9951 9952 9953 9955 9957
10484 10473 10463 10451 10437 10425 10411 10397 10382 10368 10357 10346 10336 10324 10311 10299 10285 10277 10275 10265 10248 10233 10214 10198 10191 10181 10171 10163 10152 10142 10136 10129 10124 10120 10112 10101 10091 10083 10074 10064 10057 10051 10046 10039 10030 10022 10015 10008 10003 9998 9995 9991 9986 9981 9978 9975 9972 9968 9965 9962 9960 9957 9954 9952 9950 9948 9946 9944 9942 9941 9941 9940 9939 9938 9938 9937 9938 9939 9939 9940 9941 9941 9941 9943 9945 9947
10481 10472 10465 10452 10436 10421 10408 10396 10383 10371 10359 10345 10332 10319 10304 10290 10277 10264 10256 10250 10242 10236 10225 10209 10191 10172 10159 10149 10137 10127 10121 10114 10108 10104 10099 10090 10080 10073 10066 10059 10051 10044 10037 10031 10023 10015 10007 10001 9995 9990 9985 9981 9977 9973 9969 9967 9964 9961 9958 9954 9952 9949 9947 9944 9942 9940 9939 9938 9936 9934 9933 9932 9930 9929 9929 9929 9930 9930 9930 9931 9932 9932 9932 9933 9935 9937
10476 10466 10460 10454 10443 10430 10416 10403 10389 10373 10358 10343 10327 10313 10298 10286 10275 10263 10249 10237 10227 10221 10218 10216 10203 10179 10161 10150 10137 10125 10117 10108 10102 10096 10090 10082 10073 10066 10059 10052 10045 10039 10030 10022 10015 10007 10000 9994 9988 9983 9977 9973 9969 9964 9960 9958 9955 9953 9951 9948 9944 9941 9939 9937 9935 9933 9932 9931 9929 9928 9927 9925 9923 9922 9921 9921 9922 9923 9923 9924 9924 9925 9924 9925 9926 9928
10471 10457 10447 10440 10434 10427 10417 10405 10392 10375 10356 10337 10320 10307 10295 10284 10272 10260 10249 10238 10226 10211 10199 10199 10198 10183 10165 10153 10140 10128 10117 10106 10098 10090 10082 10073 10066 10060 10054 10046 10037 10031 10024 10017 10009 10001 9993 9986 9980 9975 9969 9964 9960 9956 9952 9949 9947 9945 9943 9941 9938 9935 9932 9930 9928 9926 9925 9923 9922 9921 9920 9918 9917 9916 9915 9914 9914 9915 9916 9916 9917 9918 9918 9917 9918 9920
10466 10452 10439 10426 10415 10404 10393 10380 10367 10356 10346 10334 10319 10304 10291 10280 10267 10256 10247 10237 10226 10211 10191 10178 10179 10176 10165 10154 10143 10131 10121 10110 10099 10090 10079 10068 10058 10050 10045 10038 10030 10024 10019 10012 10005 9996 9988 9981 9974 9967 9962 9957 9952 9949 9945 9942 9940 9938 9936 9933 9931 9928 9925 9924 9922 9920 9918 9916 9915 9914 9913 9911 9910 9910 9909 9908 9908 9908 9909 9909 9910 9911 9911 9911 9911 9912
10466 10452 10436 10422 10408 10393 10380 10368 10355 10345 10338 10331 10320 10306 10290 10276 10265 10254 10244 10233 10222 10214 10197 10174 10161 10156 10149 10140 10131 10121 10112 10103 10095 10087 10077 10068 10056 10044 10036 10030 10024 10017 10012 10006 9999 9992 9983 9976 9970 9963 9956 9951 9945 9941 9939 9936 9933 9932 9930 9927 9924 9921 9917 9916 9915 9913 9911 9909 9907 9906 9905 9905 9904 9904 9903 9902 9902 9902 9902 9903 9903 9904 9904 9904 9904 9904
10467 10455 10439 10423 10409 10395 10381 10371 10360 10347 10334 10323 10313 10301 10286 10273 10262 10251 10239 10228 10218 10211 10204 10187 10168 10154 10142 10128 10115 10104 10095 10089 10085 10080 10070 10061 10050 10039 10029 10022 10015 10008 10002 9996 9989 9984 9977 9970 9964 9959 9952 9946 9940 9934 9931 9928 9926 9924 9923 9921 9918 9915 9911 9908 9907 9906 9904 9902 9900 9899 9898 9898 9897 9897 9896 9896 9895 9895 9895 9896 9896 9897 9897 9897 9897 9898
10466 10455 10442 10428 10414 10401 10388 10377 10366 10352 10337 10323 10309 10297 10283 10268 10254 10242 10229 10217 10207 10198 10192 10185 10172 10155 10141 10127 10113 10101 10089 10081 10078 10073 10063 10052 10043 10032 10020 10011 10006 10001 9995 9989 9982 9976 9971 9965 9959 9952 9947 9941 9935 9930 9926 9923 9920 9918 9916 9914 9912 9910 9906 9902 9900 9899 9898 9896 9894 9893 9892 9892 9891 9891 9890 9889 9888 9888 9888 9889 9889 9890 9890 9891 9891 9891
10465 10454 10443 10430 10417 10405 10392 10379 10365 10352 10340 10327 10312 10297 10282 10264 10247 10235 10224 10211 10201 10189 10178 10169 10159 10146 10133 10122 10110 10100 10089 10078 10071 10065 10056 10046 10036 10027 10017 10006 9998 9992 9987 9982 9977 9971 9966 9960 9954 9947 9941 9936 9931 9926 9922 9918 9915 9912 9909 9907 9906 9905 9902 9899 9895 9893 9891 9890 9889 9887 9886 9886 9886 9885 9884 9883 9882 9881 9881 9882 9882 9882 9883 9884 9884 9885
10463 10453 10442 10432 10420 10408 10395 10381 10367 10351 10336 10324 10312 10297 10281 10265 10248 10236 10227 10215 10203 10191 10175 10159 10149 10140 10129 10117 10104 10091 10079 10069 10061 10056 10049 10042 10033 10025 10017 10007 9996 9988 9981 9975 9969 9965 9960 9954 9948 9942 9935 9930 9926 9922 9918 9914 9910 9907 9904 9902 9900 9899 9897 9895 9892 9889 9886 9884 9883 9882 9880 9880 9880 9879 9878 9877 9876 9875 9875 9875 9875 9875 9875 9876 9877 9878
10461 10452 10443 10433 10420 10406 10392 10378 10365 10354 10340 10324 10311 10297 10283 10269 10250 10232 10219 10206 10190 10179 10169 10156 10144 10133 10121 10111 10098 10082 10067 10056 10052 10048 10042 10036 10030 10022 10013 10005 9996 9986 9979 9971 9964 9959 9954 9948 9943 9937 9930 9925 9920 9916 9913 9909 9904 9900 9898 9896 9894 9892 9891 9889 9887 9884 9882 9879 9877 9876 9875 9874 9873 9873 9873 9872 9871 9870 9869 9868 9868 9868 9868 9869 9870 9871
10458 10447 10437 10428 10417 10404 10390 10374 10358 10348 10337 10322 10305 10291 10278 10267 10251 10228 10209 10195 10179 10165 10156 10148 10139 10129 10118 10109 10098 10083 10065 10050 10042 10038 10032 10026 10022 10015 10005 9998 9992 9983 9975 9967 9960 9954 9949 9943 9937 9932 9926 9921 9915 9911 9907 9904 9900 9896 9892 9890 9888 9886 9885 9883 9882 9879 9876 9874 9873 9871 9870 9868 9868 9868 9867 9866 9866 9865 9863 9863 9862 9861 9862 9862 9863 9864
10453 10441 10429 10418 10407 10394 10382 10372 10358 10341 10325 10309 10296 10283 10269 10257 10244 10225 10205 10191 10181 10170 10158 10148 10139 10130 10118 10106 10096 10084 10067 10048 10034 10027 10021 10015 10012 10008 10001 9992 9985 9978 9971 9963 9955 9949 9944 9938 9932 9927 9922 9917 9912 9908 9903 9899 9896 9892 9888 9884 9882 9880 9879 9877 9875 9874 9871 9869 9868 9866 9864 9863 9862 9862 9862 9861 9861 9860 9858 9857 9857 9857 9857 9857 9857 9858
10450 10439 10426 10412 10400 10388 10374 10362 10349 10331 10315 10302 10290 10276 10261 10245 10233 10223 10208 10193 10182 10173 10162 10150 10136 10122 10110 10098 10089 10080 10068 10052 10037 10026 10016 10007 10002 9999 9995 9989 9982 9974 9967 9960 9953 9946 9939 9933 9927 9921 9916 9912 9908 9903 9899 9895 9891 9888 9885 9881 9877 9875 9874 9872 9870 9868 9866 9864 9863 9861 9859 9858 9857 9857 9857 9856 9855 9855 9854 9853 9852 9852 9852 9853 9853 9853
10445 10434 10422 10408 10396 10386 10372 10356 10341 10327 10315 10302 10285 10267 10252 10236 10221 10212 10203 10190 10177 10164 10152 10140 10127 10114 10103 10094 10086 10077 10066 10053 10039 10028 10016 10006 9997 9990 9985 9983 9978 9971 9963 9957 9951 9945 9938 9931 9924 9917 9911 9907 9902 9898 9894 9891 9887 9884 9880 9877 9874 9871 9869 9867 9864 9863 9861 9859 9858 9856 9855 9854 9853 9852 9851 9850 9850 9850 9849 9848 9848 9847 9847 9848 9848 9848
10440 10427 10417 10404 10390 10376 10364 10352 10342 10329 10311 10292 10273 10255 10240 10227 10214 10202 10191 10179 10167 10154 10143 10133 10122 10110 10099 10089 10081 10074 10066 10054 10041 10030 10019 10009 9999 9990 9980 9974 9970 9965 9959 9952 9946 9941 9935 9929 9923 9916 9910 9905 9900 9895 9891 9888 9884 9881 9877 9873 9870 9867 9865 9862 9860 9857 9856 9854 9853 9851 9850 9849 9848 9847 9846 9845 9845 9844 9844 9843 9843 9843 9842 9842 9842 9842
10437 10422 10408 10396 10383 10370 10355 10340 10328 10315 10298 10281 10266 10250 10235 10225 10216 10204 10191 10176 10163 10151 10139 10126 10115 10103 10092 10082 10073 10066 10061 10054 10043 10031 10021 10010 10000 9992 9981 9971 9964 9958 9953 9948 9942 9936 9930 9924 9919 9913 9907 9902 9897 9892 9888 9885 9882 9878 9873 9869 9866 9863 9861 9858 9855 9853 9851 9849 9848 9846 9846 9845 9843 9842 9842 9841 9840 9839 9839 9838 9838 9838 9837 9837 9838 9838
10434 10420 10406 10392 10379 10366 10351 10333 10315 10302 10289 10274 10262 10251 10238 10223 10210 10200 10191 10180 10164 10147 10133 10120 10109 10098 10085 10074 10065 10055 10048 10044 10039 10029 10019 10008 9997 9988 9980 9971 9961 9953 9946 9941 9936 9931 9926 9920 9913 9908 9904 9899 9894 9889 9885 9881 9878 9873 9870 9866 9862 9859 9856 9854 9851 9849 9846 9844 9843 9842 9841 9840 9839 9838 9837 9837 9836 9835 9834 9834 9833 9833 9833 9833 9833 9833
10430 10417 10405 10393 10379 10365 10352 10338 10319 10300 10285 10270 10255 10246 10237 10224 10208 10191 10177 10165 10153 10139 10126 10115 10105 10094 10081 10069 10059 10048 10036 10027 10022 10015 10007 9999 9990 9980 9971 9964 9957 9950 9943 9937 9932 9926 9922 9916 9909 9903 9898 9894 9890 9885 9881 9877 9873 9869 9866 9862 9858 9855 9852 9850 9847 9845 9842 9841 9839 9838 9837 9836 9835 9834 9833 9833 9832 9831 9830 9830 9829 9829 9829 9828 9828 9829
10431 10417 10403 10390 10378 10363 10350 10338 10322 10302 10286 10272 10256 10241 10231 10222 10208 10187 10163 10146 10137 10131 10122 10110 10099 10089 10078 10065 10054 10045 10032 10020 10011 10003 9996 9990 9984 9976 9966 9957 9950 9945 9940 9935 9929 9924 9918 9913 9907 9900 9894 9890 9885 9881 9877 9874 9870 9866 9862 9859 9855 9852 9849 9846 9843 9841 9839 9837 9836 9835 9833 9832 9831 9830 9829 9829 9828 9827 9827 9826 9826 9825 9825 9824 9824 9824
10431 10416 10400 10386 10373 10359 10344 10332 10321 10304 10287 10274 10260 10241 10223 10207 10193 10179 10165 10149 10136 10126 10118 10107 10095 10086 10077 10065 10052 10042 10032 10021 10011 10002 9994 9986 9979 9973 9965 9957 9948 9942 9936 9930 9925 9919 9914 9908 9902 9896 9890 9886 9882 9878 9874 9870 9867 9863 9859 9856 9852 9849 9846 9843 9840 9838 9836 9834 9833 9831 9830 9829 9828 9827 9826 9825 9825 9824 9824 9823 9822 9822 9821 9821 9821 9820
10428 10414 10400 10384 10369 10356 10339 10321 10308 10297 10284 10270 10254 10234 10214 10196 10182 10174 10168 10158 10143 10129 10119 10109 10098 10086 10076 10066 10055 10043 10033 10023 10013 10003 9994 9986 9977 9970 9963 9955 9948 9941 9935 9928 9922 9916 9911 9905 9899 9893 9888 9883 9879 9874 9871 9868 9864 9860 9856 9853 9849 9846 9843 9840 9838 9835 9834 9832 9830 9829 9827 9826 9825 9823 9823 9822 9821 9821 9820 9820 9819 9818 9817 9817 9817 9817
10425 10411 10398 10382 10365 10349 10334 10318 10304 10294 10282 10265 10247 10230 10214 10200 10187 10175 10165 10156 10147 10135 10123 10112 10101 10089 10077 10065 10054 10044 10035 10025 10014 10004 9995 9986 9977 9969 9961 9953 9946 9938 9931 9925 9919 9913 9907 9901 9896 9891 9886 9881 9876 9872 9868 9865 9862 9857 9853 9850 9847 9844 9841 9838 9836 9833 9832 9830 9828 9827 9825 9824 9822 9821 9820 9819 9818 9818 9817 9816 9816 9815 9814 9814 9814 9814
10426 10411 10398 10386 10372 10356 10341 10328 10315 10302 10287 10270 10253 10238 10223 10209 10195 10181 10168 10156 10147 10136 10124 10110 10098 10088 10077 10066 10054 10043 10033 10023 10012 10002 9993 9984 9975 9966 9958 9951 9944 9937 9930 9923 9917 9912 9905 9899 9893 9888 9883 9878 9874 9870 9867 9863 9859 9854 9850 9847 9844 9842 9839 9836 9834 9832 9830 9828 9826 9825 9823 9822 9820 9819 9818 9817 9816 9815 9814 9813 9812 9812 9811 9811 9811 9810
10429 10415 10401 10391 10383 10375 10362 10346 10329 10314 10300 10286 10269 10251 10234 10217 10202 10187 10173 10159 10145 10132 10121 10108 10095 10085 10075 10064 10051 10039 10029 10020 10010 9999 9989 9981 9973 9963 9955 9947 9941 9934 9927 9920 9915 9909 9903 9897 9891 9886 9881 9877 9873 9868 9864 9860 9855 9851 9847 9845 9842 9840 9837 9835 9833 9831 9829 9826 9824 9823 9821 9820 9818 9817 9816 9815 9814 9813 9812 9811 9810 9809 9809 9808 9808 9807
10430 10418 10406 10394 10384 10376 10366 10352 10333 10315 10299 10286 10273 10259 10245 10228 10210 10192 10176 10161 10145 10128 10115 10104 10094 10083 10073 10062 10050 10038 10027 10017 10008 9998 9989 9979 9970 9962 9953 9945 9939 9932 9925 9918 9912 9906 9900 9894 9889 9883 9879 9875 9870 9866 9861 9857 9853 9849 9846 9843 9841 9838 9836 9834 9832 9830 9828 9825 9823 9821 9819 9818 9816 9815 9814 9813 9812 9811 9810 9809 9809 9808 9807 9806 9805 9805
10427 10416 10406 10395 10383 10372 10362 10352 10339 10321 10303 10287 10273 10258 10244 10228 10213 10196 10179 10162 10148 10135 10120 10105 10090 10078 10068 10059 10048 10036 10024 10014 10005 9996 9988 9978 9969 9960 9951 9944 9937 9930 9923 9917 9911 9905 9899 9893 9887 9882 9877 9873 9868 9863 9859 9855 9851 9848 9845 9842 9840 9837 9835 9833 9831 9829 9826 9824 9822 9820 9818 9817 9815 9814 9813 9812 9811 9810 9809 9808 9807 9806 9805 9804 9803 9803
10429 10419 10408 10397 10385 10372 10358 10346 10334 10322 10307 10292 10275 10257 10240 10224 10209 10194 10179 10164 10150 10138 10125 10110 10093 10075 10061 10051 10043 10033 10023 10013 10003 9994 9986 9977 9968 9958 9949 9942 9936 9929 9922 9916 9910 9904 9897 9891 9886 9881 9876 9871 9867 9863 9858 9855 9851 9848 9845 9842 9839 9836 9834 9832 9830 9828 9825 9823 9821 9819 9818 9816 9815 9813 9812 9811 9809 9808 9807 9806 9805 9804 9803 9803 9802 9801
10433 10424 10410 10394 10377 10361 10346 10331 10319 10308 10295 10282 10268 10254 10239 10223 10207 10193 10179 10165 10149 10133 10120 10108 10096 10082 10064 10049 10040 10032 10021 10010 10001 9992 9983 9975 9967 9958 9949 9941 9935 9929 9922 9916 9910 9903 9897 9891 9886 9881 9876 9871 9867 9863 9858 9854 9851 9848 9844 9841 9838 9836 9833 9831 9829 9827 9825 9823 9821 9819 9817 9815 9814 9812 9811 9809 9808 9807 9806 9805 9804 9803 9802 9801 9801 9800
10430 10417 10404 10388 10372 10357 10343 10330 10318 10304 10291 10278 10267 10255 10241 10226 10211 10195 10180 10164 10147 10131 10114 10100 10089 10081 10068 10053 10040 10030 10021 10011 10001 9991 9982 9974 9967 9959 9950 9941 9934 9927 9920 9914 9908 9903 9897 9892 9887 9882 9876 9871 9867 9863 9858 9854 9850 9847 9844 9841 9838 9835 9833 9831 9828 9826 9824 9822 9820 9819 9817 9815 9813 9811 9810 9809 9807 9806 9805 9804 9803 9802 9801 9800 9800 9799